Simultaneous Nadir Overpasses (SNOs) Predictions

Prediction of SNOs between NOAA-15 and METOP-C Satellite Orbit:

Table of predicted SNOs for the next 14.0 days since TLE Epoch: 12/28/2018
Index Date (NOAA-15) Time (NOAA-15) Lat,Lon (NOAA-15) SZA (NOAA-15 ) Date (METOP-C) Time (METOP-C) Lat,Lon (METOP-C) SZA (METOP-C ) Distance(km) Time Diff (sec)
1 01/09/2019 10:39:06 80.74, 52.35 104.01 01/09/2019 10:37:56 80.73, 52.23 103.97 2.53 70
2 01/09/2019 11:29:41 -80.73,-140.16 76.00 01/09/2019 11:28:37 -80.74,-140.22 76.02 1.38 64
3 01/09/2019 12:20:09 80.74, 27.03 104.00 01/09/2019 12:19:17 80.74, 27.10 103.98 1.40 52
4 01/09/2019 13:10:44 -80.74,-165.48 76.01 01/09/2019 13:09:58 -80.75,-165.35 76.00 3.02 46
5 01/09/2019 14:01:12 80.75, 1.71 103.99 01/09/2019 14:00:39 80.73, 1.63 103.95 2.27 33
6 01/09/2019 14:51:47 -80.74, 169.20 76.02 01/09/2019 14:51:20 -80.75, 169.18 76.03 0.78 27
7 01/09/2019 15:42:15 80.75, -23.61 103.97 01/09/2019 15:42:00 80.75, -23.50 103.97 2.02 15
8 01/09/2019 16:32:50 -80.74, 143.88 76.03 01/09/2019 16:32:42 -80.74, 143.70 76.06 3.30 8
9 01/09/2019 17:23:18 80.75, -48.93 103.96 01/09/2019 17:23:22 80.74, -48.98 103.94 2.16 4
10 01/09/2019 18:13:53 -80.75, 118.57 76.05 01/09/2019 18:14:03 -80.75, 118.57 76.04 0.43 10
11 01/09/2019 19:04:21 80.76, -74.25 103.95 01/09/2019 19:04:43 80.75, -74.11 103.96 2.64 22
12 01/09/2019 19:54:56 -80.75, 93.25 76.06 01/09/2019 19:55:25 -80.74, 93.10 76.07 2.77 29
13 01/09/2019 20:45:24 80.76, -99.57 103.94 01/09/2019 20:46:05 80.74, -99.59 103.93 2.22 41
14 01/09/2019 21:35:59 -80.75, 67.93 76.07 01/09/2019 21:36:46 -80.75, 67.97 76.05 0.79 47
15 01/09/2019 22:26:27 80.76,-124.88 103.92 01/09/2019 22:27:26 80.75,-124.71 103.95 3.27 59
16 01/09/2019 23:17:02 -80.76, 42.61 76.08 01/09/2019 23:18:08 -80.75, 42.50 76.08 2.29 66




NCC Satellite Simultaneous Nadir Overpasses (SNOs) Prediction Service
